Location: Helsinki
(60.1699°N, 24.9384°E)
Time: 12:25:52
(UTC+02:00)

Transit 2A Rocket - Pass Details

Date: 22 September 2023
Orbit: 593 x 903 km, 66.7° (Epoch: 06 December)

Event Time Altitude Azimuth Distance (km) Brightness Sun altitude
Rises 17:40:34 0° 221° (SW) 3,303 9.4 11.5°
Reaches altitude 10° 17:43:05 10° 219° (SW) 2,327 8.7 11.2°
Maximum altitude 17:48:22 72° 136° (SE) 769 5.2 10.6°
Drops below altitude 10° 17:53:12 10° 53° (NE) 2,133 6.8 10.0°
Sets 17:55:25 0° 52° (NE) 3,007 7.5 9.7°
